Home   Weather   Stafford   Past weeks

Flag for United Kingdom Past Weather in Stafford, England, United Kingdom — Yesterday and Last 2 Weeks

Now
36 °F

Fog.


Feels Like: 32 °F
Forecast: 32 / 45 °F
Wind: 5 mph from East

Location: Shawbury

Current Time: Dec 6, 2016 at 6:01:21 am

Latest Report: Dec 6, 2016 at 4:50 am


Visibility: 2 mi

Pressure: 30.24 "Hg

Humidity: 100%

Dew Point: 36 °F

Location of StaffordLocation

Past Weather in Stafford — Graph

°F

Stafford Temperature Yesterday

Maximum temperature yesterday: 37 °F (at 12:50 pm)
Minimum temperature yesterday: 27 °F (at 1:50 am)
Average temperature yesterday: 33 °F

High & Low Weather Summary for the Past Weeks

 TemperatureHumidityPressure
High48 °F (Nov 23, 1:50 pm)100% (Nov 21, 5:50 pm)30.57 "Hg (Nov 21, 5:50 pm)
Low21 °F (Nov 29, 7:50 am)57% (Nov 28, 2:50 pm)29.06 "Hg (Nov 21, 4:50 pm)
Average39 °F87%30.21 "Hg
* Reported Nov 21 4:50 am — Dec 6 4:50 am, Stafford, Weather by CustomWeather, © 2016

Note: Actual official high and low records may vary slightly from our data, if they occured in-between our weather recording intervals... More about our weather records

Advertising

Stafford Weather History for the Previous 24 Hours

Scroll right to see more
 ConditionsComfort  
Time TempWeatherWind HumidityBarometerVisibility
4:50 am
Tue, Dec 6
36 °FFog.5 mph100%30.24 "Hg2 mi
3:50 am36 °FFog.5 mph100%30.24 "Hg2 mi
2:50 am37 °FFog.5 mph93%30.24 "Hg2 mi
1:50 am36 °FFog.2 mph100%30.27 "Hg2 mi
12:50 am36 °FFog.3 mph93%30.27 "Hg1 mi
11:50 pm
Mon, Dec 5
36 °FFog.6 mph93%30.27 "Hg1 mi
10:50 pm34 °FFog.5 mph100%30.24 "Hg1 mi
9:50 pm34 °FFog.5 mph100%30.24 "Hg1 mi
8:50 pm32 °FIce fog.2 mph100%30.24 "Hg2 mi
7:50 pm32 °FIce fog.1 mph100%30.24 "Hg2 mi
6:50 pm32 °FIce fog.2 mph100%30.24 "Hg2 mi
5:50 pm34 °FFog.3 mph93%30.24 "Hg2 mi
4:50 pm34 °FPassing clouds.3 mph93%30.24 "Hg2 mi
3:50 pm37 °FPartly sunny.3 mph87%30.24 "Hg3 mi
2:50 pm37 °FPartly sunny.2 mph87%30.21 "Hg4 mi
1:50 pm37 °FPartly sunny.6 mph87%30.21 "Hg4 mi
12:50 pm37 °FPartly sunny.3 mph87%30.21 "Hg3 mi
11:50 am36 °FOvercast.6 mph87%30.21 "Hg4 mi
10:50 am34 °FFog.3 mph93%30.24 "Hg3 mi
9:50 am32 °FIce fog.5 mph100%30.24 "Hg4 mi
8:50 am32 °FIce fog.5 mph100%30.24 "Hg3 mi
7:50 am30 °FIce fog.3 mphN/A30.21 "Hg3 mi
6:50 am28 °FIce fog.1 mph100%30.21 "Hg5 mi
Weather by CustomWeather, © 2016

See weather overviewHow to use our weather pages